Regional Weather Roundup
Issued by NWS

Home | Current Version | Previous Version | Graphics & Text | Print | Product List | Glossary Off
Versions: 1 2 3 4 5 6 7 8 9 10 11 12 13 14 15 16 17 18 19 20 21 22 23 24 25 26 27 28 29 30 31 32 33 34 35 36 37 38 39 40 41 42 43 44 45 46 47 48 49 50

000
ASUS43 KDMX 020307
RWRIA

WEATHER ROUNDUP FOR IOWA
NATIONAL WEATHER SERVICE DES MOINES IA
1000 PM CDT MON SEP 01 2014

NOTE: "FAIR" INDICATES FEW OR NO CLOUDS BELOW 12,000 FEET WITH NO
SIGNIFICANT WEATHER AND/OR OBSTRUCTIONS TO VISIBILITY.

* - THESE STATIONS ARE NOT NWS STATIONS...THUS NOT UNDER NWS
QUALITY CONTROL.  THEY ALSO DO NOT REPORT WEATHER SUCH
AS PRECIPITATION OR FOG.

IAZ001>003-012>014-020>022-031>034-043>046-020400-
   NORTHWEST IOWA

CITY           SKY/WX    TMP DP  RH WIND       PRES   REMARKS
CARROLL *      CLEAR     63  63 100 CALM      29.87F
CHEROKEE *     CLEAR     63  63 100 CALM      29.87R
DENISON *      CLEAR     64  64 100 CALM      29.87S
LE MARS *        N/A     64  63  94 CALM      29.88R
ORANGE CITY *  CLEAR     68  61  77 CALM      29.88R
SHELDON *      CLEAR     57  57 100 CALM      29.86S
SIOUX CITY     CLEAR     66  63  90 CALM      29.87R
SPENCER        CLEAR     61  58  90 S6        29.87R
STORM LAKE *   CLEAR     63  63 100 S7        29.88R
$$

IAZ055>058-069>071-079>083-090>094-020400-
   SOUTHWEST IOWA

CITY           SKY/WX    TMP DP  RH WIND       PRES   REMARKS
ATLANTIC *     CLEAR     64  64 100 CALM      29.87S
AUDUBON *      CLEAR     64  63  94 CALM      29.89S
CLARINDA *     CLEAR     68  68 100 NE5       29.87S
COUNCIL BLFS * PTCLDY    68  64  88 CALM      29.87S
CRESTON *      PTCLDY    66  66 100 CALM      29.88R
HARLAN  *      CLEAR     63  63 100 CALM      29.91S
LAMONI         PTCLDY    70  65  84 S5        29.86F
RED OAK *      PTCLDY    64  64 100 CALM      29.87S
SHENANDOAH *     N/A     66  64  94 N5        29.87S
$$

IAZ047>049-059>061-072>074-084-020400-
   CENTRAL IOWA

CITY           SKY/WX    TMP DP  RH WIND       PRES   REMARKS
AMES           MOCLDY    63  62  97 SW5       29.85F
ANKENY *       CLEAR     66  64  94 CALM      29.86R
CHARITON *     CLOUDY    68  66  94 S5        29.85F
DES MOINES     CLOUDY    71  64  78 NW6       29.86R
GRINNELL*      CLOUDY    66  64  94 W3        29.88R
KNOXVILLE *    MOCLDY    70  64  83 CALM      29.83F
MARSHALLTOWN   CLOUDY    68  63  84 CALM      29.84F
PELLA *        LGT RAIN  70  66  88 NW3       29.86F
PERRY *          N/A     66  64  94 W6        29.86F
$$

IAZ004>006-015-016-023>025-035-036-020400-
   NORTH CENTRAL IOWA

CITY           SKY/WX    TMP DP  RH WIND       PRES   REMARKS
ALGONA *       CLEAR     63  61  94 S6        29.87S
CLARION *      CLEAR     63  61  94 S3        29.86S
ESTHERVILLE    CLEAR     61  59  93 S6        29.86S
FORT DODGE *   PTCLDY    63  61  94 CALM      29.87S
MASON CITY     PTCLDY    61  59  93 CALM      29.87S
FOREST CITY *  CLEAR     59  59 100 CALM      29.86S
IOWA FALLS *     N/A     64  61  88 CALM      29.87S
$$

IAZ007>011-017>019-026>030-037>042-050>054-066-020400-
   NORTHEAST IOWA

CITY           SKY/WX    TMP DP  RH WIND       PRES   REMARKS
CEDAR RAPIDS   CLOUDY    67  65  93 W3        29.85S
CHARLES CITY * CLEAR     63  61  94 CALM      29.86R
CLINTON *      CLOUDY    68  64  88 W5        29.87S
DECORAH *      CLEAR     64  61  88 CALM      29.84R
DUBUQUE        MOCLDY    67  63  87 NW5       29.86R
MONTICELLO *   PTCLDY    66  66 100 SW6       29.87R
OELWEIN *      PTCLDY    66  63  88 W5        29.86S
WATERLOO       CLOUDY    66  62  87 N5        29.84S
$$

IAZ064-065-067-068-078-020400-
   EAST CENTRAL IOWA

CITY           SKY/WX    TMP DP  RH WIND       PRES   REMARKS
DAVENPORT      CLOUDY    69  66  90 W3        29.86R
IOWA CITY      CLOUDY    70  65  84 CALM      29.86S
MT. PLEASANT * MOCLDY    70  68  94 S3        29.88R
MUSCATINE *    CLEAR     72  68  88 CALM      29.87R
QUAD CITIES    MOCLDY    71  66  84 SW5       29.86R
$$

IAZ062-063-075>077-085>089-095>099-020400-
   SOUTHEAST IOWA

CITY           SKY/WX    TMP DP  RH WIND       PRES   REMARKS
BURLINGTON     CLOUDY    72  68  87 SW5       29.88R
FAIRFIELD *    MOCLDY    68  66  94 SW3       29.88R
FORT MADISON * CLEAR     73  70  88 CALM      29.90R
KEOKUK *       MOCLDY    73  70  88 SW6       29.89R
OSKALOOSA *      N/A     68  66  94 CALM      29.87S
CENTERVILLE *  CLEAR     66  66 100 CALM      29.89S
OTTUMWA        MOCLDY    67  65  93 W3        29.87S
WASHINGTON *   CLEAR     68  66  94 SW3       29.86F
$$

ABBREVIATIONS USED IN REMARKS
   TC - TEMPERATURES IN CELSIUS
  WCI - WIND CHILL INDEX
   HX - HEAT INDEX
  VSB - VISIBILITY
$$




USA.gov is the U.S. government's official web portal to all federal, state and local government web resources and services.